Easton, MD

12:26 PM EST on December 12, 2019 (GMT -0500)
Easton / Newnam

Weather History for KESN - November, 2019

Change the Weather History Date:

Wednesday, November 13, 2019

  Actual Average Record
Temperature  
Mean Temperature 32 °F -  
Max Temperature 37 °F 58 °F 77 °F (1955)
Min Temperature 26 °F 41 °F 26 °F (1957)
Degree Days  
Heating Degree Days 34    
Moisture  
Dew Point 12 °F    
Average Humidity 49    
Maximum Humidity 77    
Minimum Humidity 36    
Precipitation  
Precipitation 0.00 in - - ()
Sea Level Pressure  
Sea Level Pressure 30.40 in    
Wind  
Wind Speed 7 mph ()    
Max Wind Speed 14 mph    
Max Gust Speed 23 mph    
Visibility 10.0 miles    
Events      
Averages and records for this station are not official NWS values.
T = Trace of Precipitation, MM = Missing Value Source: Averaged Metar Reports

Daily Weather History Graph

Daily Weather History Graph

Search for Another Location

Airport or City:

Astronomy

Nov. 13, 2019 Rise Set
Actual Time 6:44 AM EST 4:52 PM EST
Civil Twilight 6:15 AM EST 5:20 PM EST
Nautical Twilight 5:43 AM EST 5:52 PM EST
Astronomical Twilight 5:12 AM EST 6:24 PM EST
Moon 5:54 PM EST (11/13) 7:35 AM EST (11/13)
Length of Visible Light 11h 04m
Length of Day
10h 08m
Full, 99% of the Moon is Illuminated
Nov 13
Full
Nov 19
Last Quarter
Nov 26
New
Dec 4
First Quarter
Dec 12
Full

Hourly Weather History & Observations

Time (EST) Temp. Windchill Dew Point Humidity Pressure Visibility Wind Dir Wind Speed Gust Speed Precip Events Conditions
12:00 AM 32.0 °F 22.1 °F 11.3 °F 42% 30.28 in 10.0 mi North 13.8 mph 20.7 mph N/A   Clear
12:20 AM 31.6 °F 22.1 °F 9.3 °F 39% 30.29 in 10.0 mi North 12.7 mph 16.1 mph N/A   Clear
12:40 AM 30.9 °F 22.8 °F 9.7 °F 41% 30.29 in 10.0 mi North 9.2 mph - N/A   Clear
1:00 AM 30.7 °F 22.0 °F 9.1 °F 40% 30.30 in 10.0 mi North 10.4 mph - N/A   Clear
1:20 AM 30.4 °F 23.6 °F 8.1 °F 39% 30.31 in 10.0 mi North 6.9 mph - N/A   Clear
1:40 AM 29.8 °F 20.9 °F 7.5 °F 39% 30.31 in 10.0 mi North 10.4 mph - N/A   Clear
2:00 AM 29.5 °F 22.5 °F 7.0 °F 39% 30.31 in 10.0 mi North 6.9 mph - N/A   Clear
2:20 AM 29.3 °F 22.3 °F 6.8 °F 39% 30.32 in 10.0 mi North 6.9 mph - N/A   Clear
2:40 AM 28.8 °F 20.2 °F 7.2 °F 40% 30.32 in 10.0 mi North 9.2 mph - N/A   Clear
3:00 AM 28.8 °F 22.6 °F 6.8 °F 40% 30.33 in 10.0 mi North 5.8 mph - N/A   Clear
3:20 AM 28.6 °F 21.5 °F 7.2 °F 40% 30.33 in 10.0 mi NNW 6.9 mph - N/A   Clear
3:40 AM 28.8 °F 21.7 °F 6.8 °F 40% 30.34 in 10.0 mi NNW 6.9 mph - N/A   Clear
4:00 AM 29.3 °F 20.8 °F 6.8 °F 39% 30.34 in 10.0 mi North 9.2 mph - N/A   Clear
4:20 AM 28.4 °F 21.2 °F 7.7 °F 42% 30.35 in 10.0 mi NNW 6.9 mph - N/A   Clear
4:40 AM 28.2 °F 21.0 °F 8.6 °F 44% 30.36 in 10.0 mi North 6.9 mph - N/A   Clear
5:00 AM 28.4 °F 19.7 °F 9.0 °F 44% 30.37 in 10.0 mi NNW 9.2 mph - N/A   Clear
5:20 AM 28.2 °F 20.2 °F 9.3 °F 45% 30.37 in 10.0 mi North 8.1 mph - N/A   Clear
5:40 AM 28.0 °F 21.7 °F 9.5 °F 46% 30.38 in 10.0 mi NNW 5.8 mph - N/A   Clear
5:44 AM 27.9 °F 20.6 °F 9.7 °F 47% 30.38 in 10.0 mi NNW 6.9 mph - N/A   Clear
5:50 AM 28.4 °F 20.4 °F 10.4 °F 47% 30.38 in 10.0 mi NNW 8.1 mph - N/A   Clear
6:50 AM 26.6 °F 18.2 °F 12.2 °F 55% 30.42 in 10.0 mi NNW 8.1 mph - N/A   Clear
7:50 AM 28.4 °F 21.2 °F 12.2 °F 51% 30.44 in 10.0 mi NNW 6.9 mph - N/A   Clear
8:50 AM 32.0 °F 23.6 °F 12.2 °F 44% 30.45 in 10.0 mi NW 10.4 mph 18.4 mph N/A   Clear
9:50 AM 33.8 °F 24.8 °F 12.2 °F 41% 30.46 in 10.0 mi NW 12.7 mph 16.1 mph N/A   Clear
10:50 AM 33.8 °F 25.8 °F 14.0 °F 44% 30.47 in 10.0 mi WNW 10.4 mph 23.0 mph N/A   Clear
11:50 AM 35.6 °F 27.5 °F 15.8 °F 44% 30.45 in 10.0 mi WNW 11.5 mph 16.1 mph N/A   Clear
12:50 PM 35.6 °F 29.2 °F 12.2 °F 38% 30.44 in 10.0 mi WNW 8.1 mph - N/A   Clear
1:55 PM 37.4 °F 32.8 °F 12.2 °F 36% 30.42 in 10.0 mi NW 5.8 mph - N/A   Clear
2:50 PM 37.4 °F 30.8 °F 14.0 °F 38% 30.44 in 10.0 mi NNW 9.2 mph - N/A   Clear
3:50 PM 37.4 °F 32.1 °F 14.0 °F 38% 30.44 in 10.0 mi NW 6.9 mph - N/A   Clear
5:55 PM 30.2 °F - 17.6 °F 60% 30.45 in 10.0 mi Calm Calm - N/A   Clear
6:50 PM 30.2 °F - 19.4 °F 64% 30.46 in 10.0 mi Calm Calm - N/A   Clear
7:50 PM 28.4 °F - 19.4 °F 69% 30.47 in 10.0 mi Calm Calm - N/A   Clear
8:50 PM 28.4 °F - 19.4 °F 69% 30.47 in 10.0 mi Calm Calm - N/A   Clear
9:50 PM 28.4 °F 23.3 °F 21.2 °F 74% 30.48 in 10.0 mi ESE 4.6 mph - N/A   Clear
10:20 PM 28.6 °F 23.5 °F 20.7 °F 72% 30.48 in 10.0 mi ESE 4.6 mph - N/A   Clear
10:40 PM 28.8 °F - 20.3 °F 71% 30.49 in 10.0 mi Calm Calm - N/A   Clear
11:00 PM 28.2 °F - 21.7 °F 77% 30.49 in 10.0 mi Calm Calm - N/A   Clear
11:20 PM 27.3 °F 22.0 °F 20.3 °F 75% 30.48 in 10.0 mi SE 4.6 mph - N/A   Clear
11:40 PM 28.6 °F 24.8 °F 18.9 °F 67% 30.48 in 10.0 mi ESE 3.5 mph - N/A   Clear